When you browse on this site, cookies collect data to enhance your experience and personalize the content and advertising you see.
Visit our Privacy Policy to learn more. By continuing to use the site, you agree to this use of cookies and data.
  • In Deutschland
  • Länderverzeichnis
  • Für 7 Tage
  • Wassertemperatur
  • Wetterkarte
  • Widgets
  • user-avatar
    Anmelden

    Stündliche Wetter Nottingham

    Heute, 24 September, Dienstag

    Zeit Temperatur Niederschläge Wind Luftdruck Luftfeuchtigkeit
    00:00 +17°C° 0 mm 3 m/S 748 mmHg 93%
    01:00 +17°C° 0 mm 3 m/S 747 mmHg 93%
    02:00 +17°C° 0 mm 3 m/S 747 mmHg 93%
    03:00 +17°C° 0 mm 3 m/S 746 mmHg 93%
    04:00 +17°C° 0.2 mm 3 m/S 745 mmHg 94%
    05:00 +17°C° 0.2 mm 3 m/S 745 mmHg 95%
    06:00 +15°C° 0.2 mm 4 m/S 744 mmHg 95%
    07:00 +15°C° 3.2 mm 4 m/S 744 mmHg 95%
    08:00 +15°C° 3.2 mm 4 m/S 743 mmHg 95%
    09:00 +15°C° 3.2 mm 4 m/S 742 mmHg 95%
    10:00 +17°C° 2 mm 4 m/S 742 mmHg 93%
    11:00 +17°C° 2 mm 4 m/S 742 mmHg 91%
    12:00 +17°C° 2 mm 4 m/S 742 mmHg 89%
    13:00 +17°C° 0.3 mm 5 m/S 741 mmHg 85%
    14:00 +17°C° 0.3 mm 5 m/S 741 mmHg 81%
    15:00 +19°C° 0.3 mm 5 m/S 741 mmHg 78%
    16:00 +17°C° 0.2 mm 5 m/S 741 mmHg 80%
    17:00 +17°C° 0.2 mm 4 m/S 742 mmHg 82%
    18:00 +15°C° 0.2 mm 4 m/S 742 mmHg 84%
    19:00 +15°C° 0 mm 4 m/S 742 mmHg 86%
    20:00 +14°C° 0 mm 4 m/S 742 mmHg 89%
    21:00 +13°C° 0 mm 4 m/S 743 mmHg 91%
    22:00 +13°C° 0 mm 4 m/S 742 mmHg 91%
    23:00 +13°C° 0 mm 4 m/S 742 mmHg 91%

    Morgen, 25 September, Mittwoch

    Zeit Temperatur Niederschläge Wind Luftdruck Luftfeuchtigkeit
    00:00 +13°C° 0 mm 4 m/S 742 mmHg 91%
    01:00 +13°C° 0.2 mm 4 m/S 742 mmHg 92%
    02:00 +13°C° 0.2 mm 4 m/S 741 mmHg 93%
    03:00 +13°C° 0.2 mm 4 m/S 741 mmHg 93%
    04:00 +13°C° 0.3 mm 3 m/S 741 mmHg 94%
    05:00 +13°C° 0.3 mm 3 m/S 741 mmHg 94%
    06:00 +15°C° 0.3 mm 2 m/S 741 mmHg 94%
    07:00 +15°C° 0.1 mm 2 m/S 741 mmHg 92%
    08:00 +16°C° 0.1 mm 1 m/S 741 mmHg 91%
    09:00 +16°C° 0.1 mm 1 m/S 742 mmHg 89%
    10:00 +18°C° 0.1 mm 1 m/S 742 mmHg 86%
    11:00 +18°C° 0.1 mm 1 m/S 742 mmHg 83%
    12:00 +19°C° 0.1 mm 1 m/S 743 mmHg 81%
    13:00 +18°C° 0.3 mm 2 m/S 743 mmHg 79%
    14:00 +18°C° 0.3 mm 2 m/S 743 mmHg 78%
    15:00 +19°C° 0.3 mm 3 m/S 743 mmHg 76%
    16:00 +18°C° 0.2 mm 3 m/S 744 mmHg 80%
    17:00 +17°C° 0.2 mm 2 m/S 744 mmHg 83%
    18:00 +16°C° 0.2 mm 2 m/S 744 mmHg 87%
    19:00 +16°C° 0 mm 2 m/S 745 mmHg 88%
    20:00 +15°C° 0 mm 2 m/S 745 mmHg 89%
    21:00 +14°C° 0 mm 3 m/S 745 mmHg 90%
    22:00 +13°C° 0 mm 3 m/S 745 mmHg 91%
    23:00 +13°C° 0 mm 3 m/S 745 mmHg 91%

    übermorgen, 26 September, Donnerstag

    Zeit Temperatur Niederschläge Wind Luftdruck Luftfeuchtigkeit
    00:00 +13°C° 0 mm 3 m/S 745 mmHg 92%
    01:00 +14°C° 0.5 mm 4 m/S 745 mmHg 93%
    02:00 +14°C° 0.5 mm 4 m/S 744 mmHg 93%
    03:00 +15°C° 0.5 mm 5 m/S 744 mmHg 94%
    04:00 +15°C° 0.3 mm 5 m/S 744 mmHg 93%
    05:00 +15°C° 0.3 mm 5 m/S 744 mmHg 92%
    06:00 +16°C° 0.3 mm 5 m/S 744 mmHg 91%
    07:00 +16°C° 0.1 mm 6 m/S 744 mmHg 87%
    08:00 +16°C° 0.1 mm 6 m/S 744 mmHg 82%
    09:00 +17°C° 0.1 mm 6 m/S 744 mmHg 78%
    10:00 +17°C° 0.2 mm 6 m/S 745 mmHg 75%
    11:00 +17°C° 0.2 mm 6 m/S 745 mmHg 71%
    12:00 +17°C° 0.2 mm 6 m/S 745 mmHg 68%
    13:00 +16°C° 0.1 mm 6 m/S 745 mmHg 68%
    14:00 +16°C° 0.1 mm 6 m/S 745 mmHg 68%
    15:00 +16°C° 0.1 mm 6 m/S 745 mmHg 68%
    16:00 +15°C° 0 mm 6 m/S 745 mmHg 71%
    17:00 +14°C° 0 mm 5 m/S 745 mmHg 73%
    18:00 +13°C° 0 mm 5 m/S 745 mmHg 76%
    19:00 +13°C° 0 mm 5 m/S 746 mmHg 77%
    20:00 +12°C° 0 mm 5 m/S 746 mmHg 78%
    21:00 +12°C° 0 mm 5 m/S 746 mmHg 79%
    22:00 +12°C° 0 mm 5 m/S 746 mmHg 80%
    23:00 +12°C° 0 mm 5 m/S 746 mmHg 82%

    27 September, Freitag

    Zeit Temperatur Niederschläge Wind Luftdruck Luftfeuchtigkeit
    00:00 +12°C° 0 mm 5 m/S 746 mmHg 84%
    01:00 +11°C° 0 mm 6 m/S 746 mmHg 84%
    02:00 +11°C° 0 mm 6 m/S 745 mmHg 84%
    03:00 +11°C° 0 mm 6 m/S 745 mmHg 84%
    04:00 +11°C° 0.3 mm 6 m/S 745 mmHg 85%
    05:00 +11°C° 0.3 mm 7 m/S 744 mmHg 85%
    06:00 +11°C° 0.3 mm 8 m/S 744 mmHg 86%
    07:00 +12°C° 0.2 mm 8 m/S 744 mmHg 83%
    08:00 +13°C° 0.2 mm 8 m/S 744 mmHg 80%
    09:00 +13°C° 0.2 mm 8 m/S 744 mmHg 76%
    10:00 +13°C° 0 mm 8 m/S 745 mmHg 72%
    11:00 +15°C° 0 mm 7 m/S 745 mmHg 68%
    12:00 +15°C° 0 mm 7 m/S 745 mmHg 64%
    13:00 +15°C° 0.2 mm 7 m/S 745 mmHg 66%
    14:00 +15°C° 0.2 mm 7 m/S 745 mmHg 68%
    15:00 +14°C° 0.2 mm 7 m/S 745 mmHg 70%
    16:00 +14°C° 0.2 mm 7 m/S 745 mmHg 73%
    17:00 +14°C° 0.2 mm 7 m/S 745 mmHg 77%
    18:00 +13°C° 0.2 mm 6 m/S 745 mmHg 81%
    19:00 +12°C° 0.3 mm 7 m/S 745 mmHg 81%
    20:00 +12°C° 0.3 mm 7 m/S 745 mmHg 82%
    21:00 +12°C° 0.3 mm 7 m/S 746 mmHg 82%
    22:00 +11°C° 0.1 mm 7 m/S 746 mmHg 83%
    23:00 +11°C° 0.1 mm 6 m/S 746 mmHg 84%

    28 September, Samstag

    Zeit Temperatur Niederschläge Wind Luftdruck Luftfeuchtigkeit
    00:00 +11°C° 0.1 mm 6 m/S 746 mmHg 85%
    01:00 +10°C° 0 mm 6 m/S 746 mmHg 85%
    02:00 +10°C° 0 mm 6 m/S 747 mmHg 86%
    03:00 +9°C° 0 mm 5 m/S 747 mmHg 86%
    04:00 +9°C° 0 mm 5 m/S 747 mmHg 87%
    05:00 +9°C° 0 mm 5 m/S 748 mmHg 88%
    06:00 +9°C° 0 mm 5 m/S 748 mmHg 89%
    07:00 +10°C° 0 mm 5 m/S 748 mmHg 85%
    08:00 +12°C° 0 mm 5 m/S 749 mmHg 82%
    09:00 +13°C° 0 mm 6 m/S 749 mmHg 78%
    10:00 +14°C° 0 mm 6 m/S 749 mmHg 74%
    11:00 +15°C° 0 mm 6 m/S 750 mmHg 70%
    12:00 +16°C° 0 mm 6 m/S 750 mmHg 67%
    13:00 +16°C° 0.1 mm 6 m/S 750 mmHg 70%
    14:00 +15°C° 0.1 mm 6 m/S 750 mmHg 73%
    15:00 +15°C° 0.1 mm 6 m/S 750 mmHg 76%
    16:00 +14°C° 0.1 mm 5 m/S 750 mmHg 78%
    17:00 +13°C° 0.1 mm 5 m/S 750 mmHg 81%
    18:00 +13°C° 0.1 mm 5 m/S 750 mmHg 83%
    19:00 +12°C° 0 mm 5 m/S 750 mmHg 83%
    20:00 +12°C° 0 mm 5 m/S 750 mmHg 83%
    21:00 +10°C° 0 mm 5 m/S 750 mmHg 83%
    22:00 +10°C° 0 mm 5 m/S 750 mmHg 83%
    23:00 +10°C° 0 mm 5 m/S 749 mmHg 83%

    29 September, Sonntag

    Zeit Temperatur Niederschläge Wind Luftdruck Luftfeuchtigkeit
    00:00 +10°C° 0 mm 5 m/S 749 mmHg 82%
    01:00 +11°C° 1.2 mm 4 m/S 748 mmHg 87%
    02:00 +11°C° 1.2 mm 4 m/S 748 mmHg 91%
    03:00 +11°C° 1.2 mm 3 m/S 747 mmHg 95%
    04:00 +11°C° 0.8 mm 3 m/S 747 mmHg 95%
    05:00 +12°C° 0.8 mm 4 m/S 746 mmHg 94%
    06:00 +12°C° 0.8 mm 4 m/S 745 mmHg 94%
    07:00 +12°C° 1.6 mm 4 m/S 745 mmHg 94%
    08:00 +12°C° 1.6 mm 5 m/S 744 mmHg 94%
    09:00 +13°C° 1.6 mm 5 m/S 743 mmHg 94%
    10:00 +13°C° 0.4 mm 5 m/S 743 mmHg 92%
    11:00 +14°C° 0.4 mm 5 m/S 742 mmHg 91%
    12:00 +15°C° 0.4 mm 5 m/S 742 mmHg 89%
    13:00 +15°C° 0.2 mm 5 m/S 741 mmHg 89%
    14:00 +17°C° 0.2 mm 4 m/S 741 mmHg 89%
    15:00 +17°C° 0.2 mm 3 m/S 740 mmHg 89%
    16:00 +17°C° 0.3 mm 4 m/S 741 mmHg 90%
    17:00 +15°C° 0.3 mm 4 m/S 741 mmHg 91%
    18:00 +14°C° 0.3 mm 5 m/S 741 mmHg 92%
    19:00 +14°C° 0 mm 5 m/S 742 mmHg 91%
    20:00 +13°C° 0 mm 4 m/S 743 mmHg 90%
    21:00 +12°C° 0 mm 4 m/S 744 mmHg 89%
    22:00 +11°C° 0 mm 4 m/S 745 mmHg 91%
    23:00 +11°C° 0 mm 3 m/S 745 mmHg 92%
    Mehr zeigen